Nome, AK

2:28 PM AKDT on March 28, 2017 (GMT -0800)
Nome

Weather History for PAOM - January, 2013

Change the Weather History Date:

Tuesday, January 8, 2013

  Actual Average Record
Temperature  
Mean Temperature 12 °F 5 °F  
Max Temperature 18 °F 13 °F 42 °F (1988)
Min Temperature 5 °F -2 °F -33 °F (1932)
Degree Days  
Heating Degree Days 53 60  
Month to date heating degree days 334 473  
Since 1 July heating degree days 6462 6286  
Cooling Degree Days 0 0  
Month to date cooling degree days 0 0  
Year to date cooling degree days 0 0  
Moisture  
Dew Point 9 °F    
Average Humidity 0    
Maximum Humidity 0    
Minimum Humidity 0    
Precipitation  
Precipitation T in 0.03 in 0.44 in (1960)
Month to date precipitation 0.06 0.26  
Year to date precipitation 0.06 0.26  
Snow  
Snow T in 0.40 in 5.40 in (1995)
Month to date snowfall 0.6 3.5  
Since 1 July snowfall 17.9 35.3  
Snow Depth 14.00 in    
Sea Level Pressure  
Sea Level Pressure 29.86 in    
Wind  
Wind Speed 2 mph (WNW)    
Max Wind Speed 9 mph    
Max Gust Speed 13 mph    
Visibility 10 miles    
Events Snow    
T = Trace of Precipitation, MM = Missing Value Source: NWS Daily Summary

Daily Weather History Graph

Daily Weather History Graph

Search for Another Location

Airport or City:

Trip Planner

Search our weather history database for the weather conditions in past years. The results will help you decide how hot, cold, wet, or windy it might be!

Date:

Astronomy

Jan. 08, 2013 Rise Set
Actual Time 11:47 AM AKST 4:30 PM AKST
Civil Twilight 10:33 AM AKST 5:44 PM AKST
Nautical Twilight 9:26 AM AKST 6:51 PM AKST
Astronomical Twilight 8:26 AM AKST 7:51 PM AKST
Moon 8:29 AM AKST (1/8) 1:47 PM AKST (1/8)
Length of Visible Light 7h 10m
Length of Day
4h 42m
Waning Crescent, 12% of the Moon is Illuminated
Jan 8
Waning Crescent
Jan 11
New
Jan 18
First Quarter
Jan 26
Full
Feb 3
Last Quarter

Hourly Weather History & Observations

Time (AKST) Temp. Windchill Dew Point Humidity Pressure Visibility Wind Dir Wind Speed Gust Speed Precip Events Conditions
12:53 AM 17.1 °F - 14.0 °F 88% 29.64 in 10.0 mi Calm Calm - N/A   Overcast
1:44 AM 17.6 °F - 14.0 °F 86% 29.67 in 10.0 mi Calm Calm - N/A   Overcast
1:53 AM 17.1 °F - 15.1 °F 92% 29.67 in 10.0 mi Calm Calm - N/A   Overcast
3:53 AM 17.1 °F - 14.0 °F 88% 29.71 in 10.0 mi Calm Calm - N/A   Overcast
4:53 AM 17.1 °F - 15.1 °F 92% 29.73 in 10.0 mi Calm Calm - 0.00 in   Overcast
5:46 AM 15.8 °F - 14.0 °F 93% 29.75 in 10.0 mi Calm Calm - N/A   Overcast
5:53 AM 16.0 °F - 14.0 °F 92% 29.75 in 10.0 mi Calm Calm - N/A   Overcast
6:53 AM 16.0 °F 7.4 °F 14.0 °F 92% 29.77 in 10.0 mi West 5.8 mph - N/A   Overcast
7:53 AM 14.0 °F - 12.0 °F 92% 29.79 in 10.0 mi Calm Calm - N/A   Overcast
8:53 AM 12.0 °F 5.9 °F 9.0 °F 88% 29.81 in 9.0 mi West 3.5 mph - N/A   Overcast
9:53 AM 9.0 °F - 7.0 °F 92% 29.83 in 9.0 mi Calm Calm - N/A   Overcast
10:53 AM 8.1 °F -2.0 °F 5.0 °F 87% 29.85 in 10.0 mi West 5.8 mph - N/A   Overcast
11:53 AM 5.0 °F - 1.9 °F 87% 29.87 in 10.0 mi Calm Calm - N/A   Mostly Cloudy
12:53 PM 6.1 °F - 3.9 °F 91% 29.90 in 10.0 mi Calm Calm - N/A   Overcast
1:53 PM 8.1 °F - 5.0 °F 87% 29.92 in 10.0 mi Calm Calm - N/A   Overcast
2:53 PM 10.0 °F - 7.0 °F 87% 29.93 in 10.0 mi Calm Calm - N/A   Overcast
3:53 PM 10.9 °F - 9.0 °F 92% 29.94 in 9.0 mi Calm Calm - 0.00 in Snow Light Snow
4:53 PM 12.0 °F 4.1 °F 9.0 °F 88% 29.95 in 10.0 mi SW 4.6 mph - 0.00 in   Overcast
5:53 PM 10.9 °F 1.4 °F 9.0 °F 92% 29.96 in 9.0 mi West 5.8 mph - 0.00 in   Overcast
6:53 PM 10.0 °F - 8.1 °F 92% 29.97 in 9.0 mi Calm Calm - 0.00 in   Overcast
7:53 PM 10.9 °F 4.7 °F 8.1 °F 88% 29.99 in 10.0 mi NNE 3.5 mph - N/A   Overcast
8:46 PM 10.4 °F - 8.6 °F 92% 29.99 in 10.0 mi Calm Calm - N/A   Overcast
8:53 PM 12.0 °F - 9.0 °F 88% 29.99 in 10.0 mi Calm Calm - N/A   Overcast
9:53 PM 7.0 °F -1.7 °F 3.9 °F 87% 29.99 in 10.0 mi East 4.6 mph - N/A   Overcast
10:53 PM 8.1 °F -2.0 °F 6.1 °F 92% 30.01 in 10.0 mi East 5.8 mph - N/A   Overcast
11:53 PM 10.0 °F -2.9 °F 8.1 °F 92% 30.02 in 10.0 mi ENE 9.2 mph - N/A   Overcast